Tracking 18852 objects as of 23-Nov-2017
HD Live streaming from Space Station
objects crossing your sky now

FENGYUN 1C DEB

Track FENGYUN 1C DEB now!
10-day predictions


NORAD ID: 36203
Int'l Code: 1999-025DUC
Perigee: 633.6 km
Apogee: 814.8 km
Inclination: 99.1 °
Period: 99.1 minutes
Semi major axis: 7095 km
RCS: 0.0118 m2 (small)
Launch date: May 10, 1999
Source: People's Republic of China (PRC)
Launch site: Taiyaun Space Center, China (TSC)

Note: This is SATELLITE DEBRIS
aabbcc
Your satellite tracking list
Your tracking list is empty




NASA's NSSDC Master Catalog

Two Line Element Set (TLE):
1 36203U 99025DUC 17326.18617002  .00000883  00000-0  20700-3 0  9994
2 36203  99.1388 305.1612 0127692  59.1614 302.2070 14.52619227479626
Source of the keplerian elements: AFSPC